Time_in_sec,Latitude,Longitude,Altitude,Nbsat_max_qualitysignal,Nbsat_locked,valid_data
1326902682.87374091,47.37635422,8.55034351,484.32498169,7,8,1
1326903190.07251835,47.37635803,8.55024815,495.36032104,7,7,1
1326903190.12147737,47.37635803,8.55024815,495.31829834,7,7,1
1326903190.17460227,47.37635803,8.55024719,495.27624512,7,7,1
1326903190.22154355,47.37635803,8.55024719,495.23413086,7,7,1
1326903190.27368212,47.37635803,8.55024719,495.19198608,7,7,1
1326903190.32163954,47.37635803,8.55024719,495.11093140,7,7,1
1326903190.37235475,47.37635803,8.55024719,495.06863403,7,7,1
1326903190.42154408,47.37635803,8.55024624,495.02630615,7,7,1
1326903190.47247934,47.37635803,8.55024624,494.98391724,7,7,1
1326903190.52158928,47.37635803,8.55024624,494.94146729,7,7,1
1326903190.57267618,47.37635803,8.55024624,494.86584473,7,7,1
1326903190.62565851,47.37635803,8.55024624,494.82327271,7,7,1
1326903190.67360759,47.37635803,8.55024624,494.78063965,7,7,1
1326903190.72499299,47.37635803,8.55024529,494.73797607,7,7,1
1326903190.77296257,47.37635803,8.55024529,494.69525146,7,7,1
1326903190.82554340,47.37636185,8.55024529,494.62750244,7,7,1
1326903190.87261772,47.37636185,8.55024529,494.58471680,7,7,1
1326903190.92091680,47.37635803,8.55024529,494.54187012,7,7,1
1326903190.97250700,47.37635803,8.55024529,494.49896240,7,7,1
1326903191.02163196,47.37635803,8.55024433,494.45599365,7,7,1
1326903191.07350564,47.37636185,8.55024433,494.39175415,7,7,1
1326903191.12163615,47.37636185,8.55024433,494.34872437,7,7,1
1326903191.17352629,47.37636185,8.55024433,494.30566406,7,7,1
1326903191.22151375,47.37636185,8.55024433,494.26254272,7,7,1
1326903191.27278948,47.37636185,8.55024338,494.21939087,7,7,1
1326903191.32147574,47.37636185,8.55024338,494.17218018,7,7,1
1326903191.37252069,47.37636185,8.55024338,494.12902832,7,7,1
1326903191.42447591,47.37636185,8.55024338,494.08581543,7,7,1
1326903191.47354150,47.37636185,8.55024338,494.04254150,7,7,1
1326903191.52154922,47.37636185,8.55024338,493.99923706,7,7,1
1326903191.57335758,47.37636185,8.55024338,493.97113037,7,7,1
1326903191.62149739,47.37636185,8.55024338,493.92788696,7,7,1
1326903191.67251611,47.37636185,8.55024242,493.88461304,7,7,1
1326903191.72147679,47.37636185,8.55024242,493.84124756,7,7,1
1326903191.77263808,47.37636185,8.55024242,493.79782104,7,7,1
1326903191.82066369,47.37636185,8.55024242,493.78073120,7,7,1
1326903191.87351131,47.37636185,8.55024242,493.73748779,7,7,1
1326903191.92056417,47.37636185,8.55024242,493.69418335,7,7,1
1326903191.97352910,47.37636185,8.55024242,493.65084839,7,7,1
1326903192.02151132,47.37636185,8.55024242,493.60745239,7,7,1
1326903192.07462811,47.37636566,8.55024147,493.59768677,7,7,1
1326903192.12151313,47.37636566,8.55024147,493.55444336,7,7,1
1326903192.17392373,47.37636566,8.55024147,493.51116943,7,7,1
1326903192.22444963,47.37636566,8.55024147,493.46783447,7,7,1
1326903192.27349210,47.37636566,8.55024147,493.42443848,7,7,1
1326903192.32453656,47.37636566,8.55024052,493.42517090,7,7,1
1326903192.37352943,47.37636566,8.55024052,493.38198853,7,7,1
1326903192.42142177,47.37636566,8.55024052,493.33871460,7,7,1
1326903192.47354913,47.37636566,8.55024052,493.29541016,7,7,1
1326903192.52147889,47.37636566,8.55024052,493.25207520,7,7,1
1326903192.57354474,47.37636566,8.55024052,493.26416016,7,7,1
1326903192.62583375,47.37636566,8.55024052,493.22106934,7,7,1
1326903192.67351079,47.37636566,8.55024052,493.17794800,7,7,1
1326903192.72550082,47.37636566,8.55023956,493.13479614,7,7,1
1326903192.77348256,47.37636566,8.55023956,493.09161377,7,7,1
1326903192.82153082,47.37636566,8.55023956,493.11520386,7,7,1
1326903192.87354827,47.37636566,8.55023956,493.07232666,7,7,1
1326903192.92147779,47.37636566,8.55023956,493.02938843,7,7,1
1326903192.97251940,47.37636566,8.55023956,492.98638916,7,7,1
1326903193.02462459,47.37636566,8.55023956,492.94332886,7,7,1
1326903193.07365036,47.37636566,8.55023956,492.97329712,7,7,1
1326903193.12124276,47.37636566,8.55023956,492.93057251,7,7,1
1326903193.17138767,47.37636566,8.55023956,492.88781738,7,7,1
1326903193.22111034,47.37636566,8.55023956,492.84500122,7,7,1
1326903193.27253056,47.37636566,8.55023956,492.80212402,7,7,1
1326903193.32162905,47.37636948,8.55023861,492.83587646,7,7,1
1326903193.37311983,47.37636566,8.55023861,492.79330444,7,7,1
1326903193.42464471,47.37636566,8.55023861,492.75067139,7,7,1
1326903193.47353148,47.37636566,8.55023861,492.70800781,7,7,1
1326903193.52164078,47.37636566,8.55023861,492.66528320,7,7,1
1326903193.57352781,47.37636948,8.55023861,492.71536255,7,7,1
1326903193.62155199,47.37636566,8.55023861,492.67306519,7,7,1
1326903193.67263079,47.37636566,8.55023861,492.63070679,7,7,1
1326903193.72148275,47.37636566,8.55023861,492.58831787,7,7,1
1326903193.77257276,47.37636566,8.55023861,492.54589844,7,8,1
1326903193.82107258,47.37636948,8.55023861,492.60290527,7,8,1
1326903193.87382388,47.37636566,8.55023861,492.56085205,7,8,1
1326903193.92560434,47.37636566,8.55023861,492.51876831,7,8,1
1326903193.97350693,47.37636566,8.55023861,492.47662354,7,8,1
1326903194.02153325,47.37636566,8.55023861,492.43444824,7,8,1
1326903194.07249308,47.37636948,8.55023861,492.49890137,7,8,1
1326903194.12147784,47.37636948,8.55023861,492.45715332,7,8,1
1326903194.17283845,47.37636948,8.55023861,492.41534424,7,8,1
1326903194.22164059,47.37636566,8.55023861,492.37353516,7,8,1
1326903194.27349520,47.37636948,8.55023766,492.42153931,7,8,1
1326903194.32463932,47.37636948,8.55023766,492.40481567,7,8,1
1326903194.37351632,47.37636948,8.55023766,492.36343384,7,8,1
1326903194.42071390,47.37636948,8.55023766,492.32202148,7,8,1
1326903194.47350979,47.37636566,8.55023766,492.28054810,7,8,1
1326903194.52150297,47.37636948,8.55023766,492.33483887,7,8,1
1326903194.57271504,47.37636948,8.55023766,492.31765747,7,8,1
1326903194.62071848,47.37636948,8.55023766,492.27661133,7,8,1
1326903194.67354059,47.37636948,8.55023766,492.23553467,7,8,1
1326903194.72155666,47.37636566,8.55023766,492.19442749,7,8,1
1326903194.77448416,47.37636566,8.55023766,492.15322876,7,8,1
1326903194.82154632,47.37636948,8.55023766,492.24160767,7,8,1
1326903194.87262440,47.37636948,8.55023766,492.20095825,7,8,1
1326903194.92147183,47.37636948,8.55023766,492.16027832,7,8,1
1326903194.97262549,47.37636566,8.55023766,492.11953735,7,8,1
1326903195.02062774,47.37636566,8.55023766,492.07876587,7,8,1
1326903195.07157874,47.37636948,8.55023766,492.17678833,7,8,1
1326903195.12430072,47.37636948,8.55023766,492.13656616,7,8,1
1326903195.17354083,47.37636948,8.55023766,492.09631348,7,8,1
1326903195.22091269,47.37636566,8.55023766,492.05599976,7,8,1
1326903195.27250695,47.37636566,8.55023670,492.01565552,7,8,1
1326903195.32151961,47.37636948,8.55023766,492.12033081,7,8,1
1326903195.37254906,47.37636948,8.55023766,492.08056641,7,8,1
1326903195.42454529,47.37636948,8.55023766,492.04077148,7,8,1
1326903195.47351646,47.37636948,8.55023766,492.00091553,7,8,1
1326903195.52146268,47.37636566,8.55023766,491.96102905,7,8,1
1326903195.57353663,47.37636948,8.55023766,492.07489014,7,8,1
1326903195.62141037,47.37636948,8.55023766,492.03564453,7,8,1
1326903195.67262268,47.37636948,8.55023766,491.99633789,7,8,1
1326903195.72160673,47.37636948,8.55023766,491.95700073,7,8,1
1326903195.77350879,47.37636566,8.55023766,491.91760254,7,8,1
1326903195.82461619,47.37636948,8.55023766,492.03787231,7,8,1
1326903195.87351656,47.37636948,8.55023766,491.99914551,7,8,1
1326903195.92453218,47.37636948,8.55023766,491.96038818,7,8,1
1326903195.97353458,47.37636948,8.55023766,491.92153931,7,8,1
1326903196.02114820,47.37636948,8.55023766,491.88265991,7,8,1
1326903196.07260561,47.37636948,8.55023766,492.01425171,7,8,1
1326903196.12147951,47.37636948,8.55023766,491.97604370,7,8,1
1326903196.17261219,47.37636948,8.55023766,491.93780518,7,8,1
1326903196.22563314,47.37636948,8.55023766,491.89950562,7,8,1
1326903196.27352095,47.37636948,8.55023766,492.01007080,7,8,1
1326903196.32154369,47.37636948,8.55023766,492.00253296,7,8,1
1326903196.37352371,47.37636948,8.55023766,491.96490479,7,8,1
1326903196.42150712,47.37636948,8.55023766,491.92724609,7,8,1
1326903196.47348666,47.37636948,8.55023766,491.88952637,7,8,1
1326903196.52147436,47.37636948,8.55023766,492.00823975,7,8,1
1326903196.57252812,47.37636948,8.55023861,491.99743652,7,8,1
1326903196.62450099,47.37636948,8.55023766,491.96041870,7,8,1
1326903196.67355084,47.37636948,8.55023766,491.92333984,7,8,1
1326903196.72449493,47.37636948,8.55023766,491.88623047,7,8,1
1326903196.77351713,47.37636948,8.55023766,491.84909058,7,8,1
1326903196.82150936,47.37636948,8.55023861,492.00094604,7,8,1
1326903196.87254500,47.37636948,8.55023861,491.96456909,7,8,1
1326903196.92149329,47.37636948,8.55023766,491.92813110,7,8,1
1326903196.97253394,47.37636948,8.55023766,491.89163208,7,8,1
1326903197.02552748,47.37636948,8.55023766,491.85510254,7,8,1
1326903197.07134676,47.37636948,8.55023861,492.00869751,7,8,1
1326903197.12484813,47.37636948,8.55023861,491.97293091,7,8,1
1326903197.17363811,47.37636948,8.55023766,491.93713379,7,8,1
1326903197.22152948,47.37636948,8.55023766,491.90127563,7,8,1
1326903197.27251911,47.37636948,8.55023766,491.86538696,7,8,1
1326903197.32155538,47.37636948,8.55023766,492.01123047,7,8,1
1326903197.37250781,47.37636948,8.55023766,491.97604370,7,8,1
1326903197.42283511,47.37636948,8.55023766,491.94082642,7,8,1
1326903197.47352505,47.37636948,8.55023766,491.90551758,7,8,1
1326903197.52482033,47.37636948,8.55023766,491.87017822,7,8,1
1326903197.57353044,47.37636948,8.55023766,492.01504517,7,8,1
1326903197.62058187,47.37636948,8.55023766,491.98043823,7,8,1
1326903197.67260766,47.37636948,8.55023766,491.94580078,7,8,1
1326903197.72149134,47.37636948,8.55023766,491.91113281,7,8,1
1326903197.77349424,47.37636948,8.55023766,491.87640381,7,8,1
1326903197.82063246,47.37636948,8.55023766,492.01739502,7,8,1
1326903197.87351751,47.37636948,8.55023766,491.98336792,7,8,1
1326903197.92155766,47.37636948,8.55023766,491.94927979,7,8,1
1326903197.97351575,47.37636948,8.55023766,491.91513062,7,8,1
1326903198.02151346,47.37636948,8.55023766,491.88095093,7,8,1
1326903198.07434821,47.37636948,8.55023766,492.01754761,7,8,1
1326903198.12150335,47.37636948,8.55023766,491.98406982,7,8,1
1326903198.17256856,47.37636948,8.55023766,491.95050049,7,8,1
1326903198.22454453,47.37636948,8.55023766,491.91693115,7,8,1
1326903198.27351618,47.37636948,8.55023766,491.88327026,7,8,1
1326903198.32453609,47.37636948,8.55023861,492.01428223,7,8,1
1326903198.37252307,47.37636948,8.55023766,491.98126221,7,8,1
1326903198.42129469,47.37636948,8.55023766,491.94818115,7,8,1
1326903198.47333431,47.37636948,8.55023766,491.91506958,7,8,1
1326903198.52147722,47.37636948,8.55023766,492.04901123,7,8,1
1326903198.57331395,47.37636948,8.55023766,492.01654053,7,8,1
1326903198.62453198,47.37636948,8.55023766,491.98403931,7,8,1
1326903198.67350674,47.37636948,8.55023766,491.95150757,7,8,1
1326903198.72454047,47.37636948,8.55023766,491.91888428,7,8,1
1326903198.77352238,47.37636948,8.55023766,492.02752686,7,8,1
1326903198.82150888,47.37636948,8.55023861,492.01538086,7,8,1
1326903198.87252760,47.37636948,8.55023861,491.98336792,7,8,1
1326903198.92146850,47.37636948,8.55023861,491.95132446,7,8,1
1326903198.97249269,47.37636948,8.55023766,491.91921997,7,8,1
1326903199.02452540,47.37636948,8.55023861,492.04458618,7,8,1
1326903199.07258415,47.37636948,8.55023861,492.01312256,7,8,1
1326903199.12461782,47.37636948,8.55023861,491.98159790,7,8,1
1326903199.17351890,47.37636948,8.55023861,491.95001221,7,8,1
1326903199.22153711,47.37636948,8.55023766,491.91839600,7,8,1
1326903199.27256942,47.37636948,8.55023861,492.02139282,7,8,1
1326903199.32150292,47.37636948,8.55023861,492.01065063,7,8,1
1326903199.37270594,47.37636948,8.55023861,491.97958374,7,8,1
1326903199.42451286,47.37636948,8.55023861,491.94848633,7,8,1
1326903199.47367311,47.37636948,8.55023861,491.91732788,7,8,1
1326903199.52554631,47.37636948,8.55023861,492.01495361,7,8,1
1326903199.57357311,47.37636948,8.55023861,491.99942017,7,8,1
1326903199.62154698,47.37636948,8.55023861,491.96875000,7,8,1
1326903199.67249250,47.37636948,8.55023861,491.93801880,7,8,1
1326903199.72149801,47.37636948,8.55023861,491.90722656,7,8,1
1326903199.77255416,47.37636948,8.55023861,492.01525879,6,6,1
1326903199.82463479,47.37636948,8.55023861,491.98501587,6,6,1
1326903199.87350368,47.37636948,8.55023861,491.95474243,6,6,1
1326903199.92101407,47.37636948,8.55023861,491.92440796,6,6,1
1326903199.97355533,47.37636948,8.55023861,491.89404297,6,6,1
1326903200.02497911,47.37636948,8.55023861,491.86364746,6,6,1
1326903200.07263994,47.37636948,8.55023861,491.97225952,6,6,1
1326903200.12164426,47.37636948,8.55023861,491.94238281,6,6,1
1326903200.17264891,47.37636948,8.55023861,491.91244507,6,6,1
1326903200.22457767,47.37636948,8.55023861,491.88250732,6,6,1
1326903200.27349782,47.37636948,8.55023861,491.97650146,6,6,1
1326903200.32152939,47.37636948,8.55023861,491.95941162,6,6,1
1326903200.37206888,47.37636948,8.55023861,491.92996216,6,6,1
1326903200.42152452,47.37636948,8.55023861,491.90042114,6,6,1
1326903200.47354579,47.37636948,8.55023861,491.87084961,6,6,1
1326903200.52152443,47.37636948,8.55023861,491.84121704,6,6,1
1326903200.57253814,47.37636948,8.55023861,491.94351196,6,6,1
1326903200.62163401,47.37636948,8.55023861,491.91439819,6,6,1
1326903200.67364907,47.37636948,8.55023861,491.88522339,6,6,1
1326903200.72062325,47.37636948,8.55023861,491.85601807,6,6,1
1326903200.77354217,47.37636948,8.55023861,491.82678223,6,6,1
1326903200.82155013,47.37636948,8.55023861,491.93267822,6,6,1
1326903200.87250113,47.37636948,8.55023861,491.90393066,6,6,1
1326903200.92146707,47.37636948,8.55023861,491.87515259,6,6,1
1326903200.97258282,47.37636948,8.55023861,491.84631348,6,6,1
1326903201.02058673,47.37636948,8.55023861,491.81744385,6,6,1
1326903201.07353401,47.37636948,8.55023861,491.91744995,6,6,1
1326903201.12459493,47.37636948,8.55023861,491.88906860,6,6,1
1326903201.17185330,47.37636948,8.55023861,491.86059570,6,6,1
1326903201.22546196,47.37636948,8.55023861,491.83209229,6,6,1
1326903201.27348113,47.37636948,8.55023861,491.91607666,6,6,1
1326903201.32148004,47.37636948,8.55023861,491.90539551,6,6,1
1326903201.37251759,47.37636948,8.55023861,491.87734985,6,6,1
1326903201.42452455,47.37636948,8.55023861,491.84924316,6,6,1
1326903201.47467113,47.37636948,8.55023861,491.82110596,6,6,1
1326903201.52433825,47.37636948,8.55023861,491.90209961,6,6,1
1326903201.57351351,47.37636948,8.55023861,491.88494873,6,6,1
1326903201.62131190,47.37636948,8.55023861,491.85723877,6,6,1
1326903201.67322373,47.37636948,8.55023861,491.82943726,6,6,1
1326903201.72150445,47.37636948,8.55023861,491.80160522,6,6,1
1326903201.77524233,47.37636948,8.55023861,491.88909912,6,8,1
1326903201.82549715,47.37636948,8.55023861,491.86166382,6,8,1
1326903201.87367916,47.37636948,8.55023861,491.83419800,6,8,1
1326903201.92762113,47.37636948,8.55023861,491.80667114,6,8,1
1326903201.97351956,47.37636948,8.55023861,491.77914429,6,8,1
1326903202.02116823,47.37636948,8.55023861,491.75152588,6,8,1
1326903202.07255125,47.37636948,8.55023861,491.83798218,6,8,1
1326903202.12159848,47.37636948,8.55023861,491.81079102,6,8,1
1326903202.17306328,47.37636948,8.55023861,491.78356934,6,8,1
1326903202.22195411,47.37636948,8.55023861,491.75628662,6,8,1
1326903202.27479649,47.37636948,8.55023861,491.72894287,6,8,1
1326903202.32451153,47.37636948,8.55023861,491.81710815,6,8,1
1326903202.37351894,47.37636948,8.55023861,491.79022217,6,8,1
1326903202.42150378,47.37636948,8.55023861,491.76324463,6,8,1
1326903202.47248292,47.37636948,8.55023861,491.73626709,6,8,1
1326903202.52147579,47.37636948,8.55023861,491.82183838,6,8,1
1326903202.57250357,47.37636948,8.55023861,491.79525757,6,8,1
1326903202.62563872,47.37636948,8.55023861,491.76867676,6,8,1
1326903202.67351270,47.37636948,8.55023861,491.74203491,6,8,1
1326903202.72564864,47.37636948,8.55023861,491.71536255,6,8,1
1326903202.77352738,47.37636948,8.55023861,491.78027344,6,8,1
1326903202.82158494,47.37636948,8.55023861,491.76205444,6,8,1
1326903202.87364054,47.37636948,8.55023861,491.73568726,6,8,1
1326903202.92160296,47.37636948,8.55023861,491.70925903,6,8,1
1326903202.97364855,47.37636948,8.55023861,491.68280029,6,8,1
1326903203.02459955,47.37636948,8.55023861,491.74191284,6,8,1
1326903203.07351446,47.37636948,8.55023956,491.73123169,6,8,1
1326903203.12150645,47.37636948,8.55023956,491.70507812,6,8,1
1326903203.17349005,47.37636948,8.55023861,491.67892456,6,8,1
1326903203.22453094,47.37636948,8.55023861,491.65270996,6,8,1
1326903203.27265239,47.37636948,8.55023861,491.70578003,6,8,1
1326903203.32147717,47.37636948,8.55023861,491.69299316,6,8,1
1326903203.37265229,47.37636948,8.55023861,491.66711426,6,8,1
1326903203.42062902,47.37636948,8.55023861,491.64120483,6,8,1
1326903203.47349906,47.37636948,8.55023861,491.61523438,6,8,1
1326903203.52067518,47.37636948,8.55023861,491.66403198,6,8,1
1326903203.57352018,47.37636948,8.55023861,491.64730835,6,8,1
1326903203.62153912,47.37636948,8.55023861,491.62158203,6,8,1
1326903203.67268109,47.37636948,8.55023861,491.59579468,6,8,1
1326903203.72061205,47.37636948,8.55023861,491.56994629,6,8,1
1326903203.77260685,47.37636948,8.55023861,491.54403687,6,8,1
1326903203.82163453,47.37636948,8.55023861,491.59674072,6,8,1
1326903203.87350011,47.37636948,8.55023861,491.57113647,6,8,1
1326903203.92152977,47.37636948,8.55023861,491.54547119,6,8,1
1326903203.97751665,47.37636948,8.55023766,491.51977539,6,8,1
1326903204.03248048,47.37636948,8.55023766,491.49401855,6,8,1
1326903204.07251167,47.37636948,8.55023766,491.53814697,6,8,1
1326903204.12150288,47.37636948,8.55023766,491.51773071,6,8,1
1326903204.17347956,47.37636948,8.55023766,491.49221802,6,8,1
1326903204.22453356,47.37636948,8.55023766,491.46664429,6,8,1
1326903204.27350473,47.37636948,8.55023766,491.50384521,6,8,1
1326903204.32453203,47.37636948,8.55023766,491.49026489,6,8,1
1326903204.37254667,47.37636948,8.55023766,491.46493530,6,8,1
1326903204.42451549,47.37636948,8.55023766,491.43954468,6,8,1
1326903204.47336960,47.37636948,8.55023766,491.41409302,6,8,1
1326903204.52703738,47.37636948,8.55023766,491.46017456,6,8,1
1326903204.57363439,47.37636948,8.55023766,491.43496704,6,8,1
1326903204.62553120,47.37636948,8.55023766,491.40969849,6,8,1
1326903204.67165327,47.37636948,8.55023766,491.38439941,6,8,1
1326903204.72466755,47.37636948,8.55023766,491.35903931,6,8,1
1326903204.77352810,47.37636948,8.55023670,491.39465332,6,8,1
1326903204.82450819,47.37636948,8.55023766,491.37768555,6,8,1
1326903204.87374520,47.37636948,8.55023766,491.35250854,6,8,1
1326903204.92149019,47.37636948,8.55023766,491.32730103,6,8,1
1326903204.97355700,47.37636948,8.55023670,491.30206299,6,8,1
1326903205.02454042,47.37636948,8.55023670,491.27679443,6,8,1
1326903205.07358146,47.37636948,8.55023670,491.31430054,6,8,1
1326903205.12148809,47.37636948,8.55023670,491.28921509,6,8,1
1326903205.17349052,47.37636948,8.55023670,491.26409912,6,8,1
1326903205.22107387,47.37636948,8.55023670,491.23889160,6,8,1
1326903205.27353120,47.37636948,8.55023670,491.27090454,6,8,1
1326903205.32178903,47.37636948,8.55023670,491.25616455,6,8,1
1326903205.37266111,47.37636948,8.55023670,491.23114014,6,8,1
1326903205.42456269,47.37636948,8.55023670,491.20608521,6,8,1
1326903205.47354364,47.37636948,8.55023670,491.18096924,6,8,1
1326903205.52465296,47.37636948,8.55023670,491.22610474,6,8,1
1326903205.57352901,47.37636948,8.55023670,491.20120239,6,8,1
1326903205.62154174,47.37636948,8.55023670,491.17630005,6,8,1
1326903205.67306304,47.37636948,8.55023670,491.15130615,6,8,1
1326903205.72147560,47.37636948,8.55023670,491.12628174,6,8,1
1326903205.77298045,47.37636948,8.55023575,491.10116577,6,8,1
1326903205.82559395,47.37636948,8.55023670,491.15228271,6,8,1
1326903205.87349796,47.37636948,8.55023575,491.12744141,6,8,1
1326903205.92508936,47.37636948,8.55023575,491.10260010,6,8,1
1326903205.97351384,47.37636948,8.55023575,491.07769775,6,8,1
1326903206.02077579,47.37636948,8.55023575,491.05276489,6,8,1
1326903206.07280159,47.37636948,8.55023575,491.09042358,6,8,1
1326903206.12147522,47.37636948,8.55023575,491.06567383,6,8,1
1326903206.17360091,47.37636948,8.55023575,491.04083252,6,8,1
1326903206.22480464,47.37636948,8.55023575,491.01596069,6,8,1
1326903206.27351236,47.37636948,8.55023575,491.05010986,6,8,1
1326903206.32564116,47.37636948,8.55023575,491.02755737,6,8,1
1326903206.37750340,47.37636948,8.55023575,491.00280762,6,8,1
1326903206.42152667,47.37636948,8.55023575,490.97799683,6,8,1
1326903206.47267723,47.37636948,8.55023575,490.95315552,6,8,1
1326903206.52150059,47.37636948,8.55023575,490.92828369,6,8,1
1326903206.57265139,47.37636948,8.55023575,490.96231079,6,8,1
1326903206.62063074,47.37636948,8.55023479,490.93765259,6,8,1
1326903206.67352247,47.37636948,8.55023479,490.91293335,6,8,1
1326903206.72050476,47.37636948,8.55023479,490.88818359,6,8,1
1326903206.77353072,47.37636948,8.55023479,490.86340332,6,8,1
1326903206.82051420,47.37636948,8.55023575,490.89147949,6,8,1
1326903206.87251902,47.37636948,8.55023575,490.86688232,6,8,1
1326903206.92148137,47.37636948,8.55023575,490.84222412,6,8,1
1326903206.97252536,47.37636566,8.55023575,490.81753540,6,8,1
1326903207.02450895,47.37636566,8.55023575,490.79281616,6,8,1
1326903207.07163858,47.37636948,8.55023575,490.82043457,6,8,1
1326903207.12451172,47.37636566,8.55023575,490.79586792,6,8,1
1326903207.17352724,47.37636566,8.55023479,490.77127075,6,8,1
1326903207.22451425,47.37636566,8.55023479,490.74664307,6,8,1
1326903207.27249026,47.37636566,8.55023479,490.72198486,6,8,1
1326903207.32149839,47.37636566,8.55023575,490.74380493,6,8,1
1326903207.37342429,47.37636566,8.55023575,490.71929932,6,8,1
1326903207.42552018,47.37636566,8.55023575,490.69470215,6,8,1
1326903207.47361612,47.37636566,8.55023479,490.67010498,6,8,1
1326903207.52460814,47.37636566,8.55023479,490.64544678,6,8,1
1326903207.57351589,47.37636566,8.55023575,490.66549683,6,8,1
1326903207.62153554,47.37636566,8.55023575,490.64096069,6,8,1
1326903207.67256904,47.37636566,8.55023575,490.61639404,6,8,1
1326903207.72150111,47.37636566,8.55023575,490.59176636,6,8,1
1326903207.77252531,47.37636566,8.55023575,490.56710815,6,8,1
1326903207.82450604,47.37636566,8.55023575,490.58703613,6,8,1
1326903207.87321281,47.37636566,8.55023575,490.56250000,6,8,1
